• In Uzbekistan
  • List of Countries
  • For 7 days
  • Water Temperature
  • Satellite Maps
  • Weather Map
  • Weather Widgets
  • user-avatar
    Login

    Hourly Weather Abovyan

    Today, 11 December, Sunday

    Time Temperature Precipitation Wind Pressure Humidity
    00:00 -2°C° 0.1 mm 1 mps 666 mmHg 84%
    01:00 -2°C° 0.1 mm 1 mps 667 mmHg 84%
    02:00 -3°C° 0.1 mm 1 mps 667 mmHg 85%
    03:00 -5°C° 0 mm 2 mps 666 mmHg 85%
    04:00 -5°C° 0.1 mm 2 mps 666 mmHg 85%
    05:00 -5°C° 0.1 mm 2 mps 666 mmHg 85%
    06:00 -5°C° 0.1 mm 2 mps 667 mmHg 84%
    07:00 -3°C° 0.1 mm 2 mps 667 mmHg 82%
    08:00 -2°C° 0.1 mm 2 mps 667 mmHg 79%
    09:00 -1°C° 0.1 mm 2 mps 668 mmHg 77%
    10:00 +1°C° 0.1 mm 2 mps 668 mmHg 74%
    11:00 +2°C° 0.1 mm 2 mps 667 mmHg 71%
    12:00 +3°C° 0.1 mm 2 mps 667 mmHg 68%
    13:00 +3°C° 0 mm 2 mps 667 mmHg 68%
    14:00 +3°C° 0 mm 2 mps 667 mmHg 68%
    15:00 +3°C° 0 mm 2 mps 667 mmHg 68%
    16:00 +1°C° 0 mm 2 mps 667 mmHg 71%
    17:00 -2°C° 0 mm 2 mps 667 mmHg 75%
    18:00 -4°C° 0 mm 2 mps 667 mmHg 78%
    19:00 -4°C° 0 mm 2 mps 667 mmHg 79%
    20:00 -2°C° 0 mm 1 mps 667 mmHg 79%
    21:00 -3°C° 0 mm 1 mps 668 mmHg 80%
    22:00 -3°C° 0 mm 1 mps 668 mmHg 80%
    23:00 -3°C° 0 mm 1 mps 668 mmHg 81%

    Tomorrow, 12 December, Monday

    Time Temperature Precipitation Wind Pressure Humidity
    00:00 -3°C° 0 mm 1 mps 668 mmHg 81%
    01:00 -3°C° 0 mm 1 mps 668 mmHg 81%
    02:00 -3°C° 0 mm 1 mps 668 mmHg 82%
    03:00 -4°C° 0 mm 1 mps 668 mmHg 82%
    04:00 -4°C° 0 mm 1 mps 668 mmHg 82%
    05:00 -4°C° 0 mm 1 mps 668 mmHg 82%
    06:00 -6°C° 0 mm 1 mps 668 mmHg 82%
    07:00 -2°C° 0 mm 1 mps 669 mmHg 79%
    08:00 0°C° 0 mm 1 mps 670 mmHg 76%
    09:00 +2°C° 0 mm 1 mps 671 mmHg 73%
    10:00 +2°C° 0 mm 2 mps 670 mmHg 70%
    11:00 +4°C° 0 mm 2 mps 670 mmHg 68%
    12:00 +5°C° 0 mm 2 mps 670 mmHg 66%
    13:00 +5°C° 0 mm 2 mps 669 mmHg 66%
    14:00 +5°C° 0 mm 2 mps 669 mmHg 67%
    15:00 +5°C° 0 mm 2 mps 669 mmHg 67%
    16:00 +4°C° 0 mm 2 mps 668 mmHg 70%
    17:00 +2°C° 0 mm 2 mps 668 mmHg 74%
    18:00 -1°C° 0 mm 2 mps 668 mmHg 77%
    19:00 -1°C° 0 mm 2 mps 667 mmHg 77%
    20:00 -1°C° 0 mm 2 mps 667 mmHg 77%
    21:00 +1°C° 0 mm 1 mps 667 mmHg 78%
    22:00 +1°C° 0.2 mm 1 mps 667 mmHg 78%
    23:00 +2°C° 0.2 mm 1 mps 667 mmHg 79%

    Day after tomorrow, 13 December, Tuesday

    Time Temperature Precipitation Wind Pressure Humidity
    00:00 +2°C° 0.2 mm 1 mps 667 mmHg 80%
    01:00 +2°C° 0.3 mm 1 mps 666 mmHg 81%
    02:00 +2°C° 0.3 mm 1 mps 666 mmHg 82%
    03:00 +2°C° 0.3 mm 1 mps 666 mmHg 83%
    04:00 +2°C° 0.2 mm 1 mps 665 mmHg 84%
    05:00 +2°C° 0.2 mm 1 mps 665 mmHg 85%
    06:00 +1°C° 0.2 mm 1 mps 665 mmHg 86%
    07:00 +2°C° 0.1 mm 1 mps 665 mmHg 83%
    08:00 +2°C° 0.1 mm 2 mps 665 mmHg 80%
    09:00 +3°C° 0.1 mm 2 mps 665 mmHg 78%
    10:00 +4°C° 0.2 mm 2 mps 665 mmHg 76%
    11:00 +3°C° 0.2 mm 3 mps 664 mmHg 75%
    12:00 +4°C° 0.2 mm 3 mps 664 mmHg 74%
    13:00 +4°C° 0.3 mm 3 mps 663 mmHg 74%
    14:00 +4°C° 0.3 mm 3 mps 663 mmHg 75%
    15:00 +4°C° 0.3 mm 3 mps 662 mmHg 75%
    16:00 +3°C° 0.4 mm 3 mps 662 mmHg 78%
    17:00 +3°C° 0.4 mm 3 mps 662 mmHg 80%
    18:00 +3°C° 0.4 mm 2 mps 662 mmHg 83%
    19:00 +3°C° 0.6 mm 2 mps 662 mmHg 83%
    20:00 +3°C° 0.6 mm 2 mps 662 mmHg 84%
    21:00 +3°C° 0.6 mm 2 mps 662 mmHg 84%
    22:00 +2°C° 0.5 mm 2 mps 662 mmHg 85%
    23:00 +2°C° 0.5 mm 2 mps 662 mmHg 85%

    14 December, Wednesday

    Time Temperature Precipitation Wind Pressure Humidity
    00:00 +2°C° 0.5 mm 2 mps 662 mmHg 86%
    01:00 +3°C° 1 mm 1 mps 663 mmHg 87%
    02:00 +3°C° 1 mm 1 mps 663 mmHg 88%
    03:00 +3°C° 1 mm 1 mps 663 mmHg 89%
    04:00 +3°C° 1.4 mm 1 mps 663 mmHg 90%
    05:00 +2°C° 1.4 mm 1 mps 663 mmHg 90%
    06:00 +2°C° 1.4 mm 1 mps 663 mmHg 91%
    07:00 +2°C° 1.3 mm 1 mps 663 mmHg 91%
    08:00 +2°C° 1.3 mm 1 mps 663 mmHg 91%
    09:00 +1°C° 1.3 mm 2 mps 664 mmHg 92%
    10:00 -1°C° 1.7 mm 2 mps 664 mmHg 92%
    11:00 -1°C° 1.7 mm 2 mps 664 mmHg 93%
    12:00 -1°C° 1.7 mm 3 mps 664 mmHg 93%
    13:00 -1°C° 1 mm 3 mps 664 mmHg 93%
    14:00 -2°C° 1 mm 3 mps 664 mmHg 93%
    15:00 -2°C° 1 mm 3 mps 665 mmHg 93%
    16:00 -4°C° 0.5 mm 3 mps 665 mmHg 92%
    17:00 -4°C° 0.5 mm 3 mps 666 mmHg 92%
    18:00 -5°C° 0.5 mm 3 mps 667 mmHg 92%
    19:00 -5°C° 0.3 mm 3 mps 667 mmHg 91%
    20:00 -6°C° 0.3 mm 3 mps 667 mmHg 91%
    21:00 -6°C° 0.3 mm 3 mps 668 mmHg 91%
    22:00 -6°C° 0.3 mm 3 mps 668 mmHg 91%
    23:00 -7°C° 0.3 mm 3 mps 668 mmHg 91%

    15 December, Thursday

    Time Temperature Precipitation Wind Pressure Humidity
    00:00 -7°C° 0.3 mm 3 mps 668 mmHg 91%
    01:00 -7°C° 0.2 mm 3 mps 668 mmHg 91%
    02:00 -7°C° 0.2 mm 2 mps 669 mmHg 91%
    03:00 -7°C° 0.2 mm 2 mps 669 mmHg 91%
    04:00 -7°C° 0.1 mm 2 mps 669 mmHg 91%
    05:00 -7°C° 0.1 mm 2 mps 669 mmHg 91%
    06:00 -7°C° 0.1 mm 2 mps 669 mmHg 91%
    07:00 -7°C° 0.1 mm 2 mps 669 mmHg 90%
    08:00 -6°C° 0.1 mm 2 mps 670 mmHg 89%
    09:00 -6°C° 0.1 mm 2 mps 670 mmHg 88%
    10:00 -3°C° 0.1 mm 1 mps 670 mmHg 86%
    11:00 -2°C° 0.1 mm 1 mps 670 mmHg 84%
    12:00 -1°C° 0.1 mm 1 mps 669 mmHg 82%
    13:00 -1°C° 0.1 mm 1 mps 669 mmHg 83%
    14:00 -1°C° 0.1 mm 1 mps 669 mmHg 84%
    15:00 -2°C° 0.1 mm 0 mps 669 mmHg 85%
    16:00 -5°C° 0 mm 0 mps 668 mmHg 87%
    17:00 -8°C° 0 mm 0 mps 668 mmHg 89%
    18:00 -11°C° 0 mm 0 mps 667 mmHg 91%
    19:00 -12°C° 0 mm 1 mps 667 mmHg 91%
    20:00 -13°C° 0 mm 1 mps 667 mmHg 91%
    21:00 -13°C° 0 mm 1 mps 667 mmHg 91%
    22:00 -13°C° 0 mm 1 mps 667 mmHg 91%
    23:00 -13°C° 0 mm 1 mps 668 mmHg 91%

    16 December, Friday

    Time Temperature Precipitation Wind Pressure Humidity
    00:00 -13°C° 0 mm 1 mps 668 mmHg 91%
    01:00 -13°C° 0 mm 1 mps 668 mmHg 91%
    02:00 -12°C° 0 mm 1 mps 668 mmHg 91%
    03:00 -12°C° 0 mm 1 mps 668 mmHg 91%
    04:00 -12°C° 0 mm 1 mps 668 mmHg 91%
    05:00 -12°C° 0 mm 1 mps 669 mmHg 91%
    06:00 -12°C° 0 mm 1 mps 669 mmHg 91%
    07:00 -9°C° 0 mm 1 mps 670 mmHg 89%
    08:00 -7°C° 0 mm 1 mps 671 mmHg 88%
    09:00 -4°C° 0 mm 1 mps 671 mmHg 87%
    10:00 -4°C° 0 mm 2 mps 671 mmHg 86%
    11:00 -3°C° 0 mm 2 mps 671 mmHg 85%
    12:00 -1°C° 0 mm 2 mps 671 mmHg 84%
    13:00 -1°C° 0.1 mm 2 mps 671 mmHg 85%
    14:00 -1°C° 0.1 mm 2 mps 670 mmHg 86%
    15:00 -2°C° 0.1 mm 2 mps 670 mmHg 87%
    16:00 -3°C° 0 mm 2 mps 670 mmHg 88%
    17:00 -5°C° 0 mm 2 mps 670 mmHg 90%
    18:00 -6°C° 0 mm 1 mps 670 mmHg 91%
    19:00 -6°C° 0 mm 1 mps 670 mmHg 91%
    20:00 -7°C° 0 mm 1 mps 671 mmHg 90%
    21:00 -7°C° 0 mm 1 mps 671 mmHg 90%
    22:00 -7°C° 0 mm 1 mps 671 mmHg 90%
    23:00 -7°C° 0 mm 1 mps 671 mmHg 90%
    Show more